Back to catalog

STARLINK-30503

AliveCommunicationsVLEO
NORAD 57975·PAYLOAD·🇺🇸 United States

Launched Sep 30, 2023 from Cape Canaveral Space Force Station

Loading…

Next Passes (next 24 hours)

TLE

FreshSource: CelesTrak SupGP

Epoch: Sep 15, 2026, 02:27 UTC

1 57975C 23151M   26258.10256944  .00026369  00000+0  95525-3 0  2581
2 57975  43.0019 346.6232 0001539 263.1336 344.4050 15.27559975    16

Track STARLINK-30503 in real time with AllMySat

Download on the App Store